Date,TemperatureHighF,TemperatureAvgF,TemperatureLowF,DewpointHighF,DewpointAvgF,DewpointLowF,HumidityHigh,HumidityAvg,HumidityLow,PressureMaxIn,PressureMinIn,WindSpeedMaxMPH,WindSpeedAvgMPH,GustSpeedMaxMPH,PrecipitationSumIn
2012-1-1,58.0,56.3,53.0,18.0,15.1,12.0,22,19,17,30.18,30.13,2,1,9,0.00
2012-1-2,49.0,45.4,43.0,48.0,44.1,39.0,98,95,74,30.33,30.17,5,1,12,0.07
2012-1-3,44.0,42.4,41.0,43.0,41.4,40.0,97,97,97,30.33,30.31,0,0,0,0.07
2012-1-4,51.0,51.0,51.0,33.0,30.7,26.0,50,45,37,30.36,30.35,0,0,1,0.00
2012-1-5,56.0,47.1,40.0,47.0,41.6,36.0,95,82,54,30.36,30.19,2,0,6,0.00
2012-1-6,49.0,41.7,38.0,41.0,38.4,35.0,96,88,68,30.23,30.15,2,0,7,0.01
2012-1-21,39.0,36.5,36.0,38.0,35.5,35.0,97,96,95,30.12,30.07,3,0,7,2.56
2012-1-22,47.0,41.6,36.0,47.0,40.8,34.0,99,97,92,30.10,29.76,6,2,22,1.92
2012-1-23,46.0,43.4,41.0,46.0,42.7,40.0,99,97,91,30.18,29.66,4,0,10,1.51
2012-1-24,51.0,43.4,40.0,40.0,38.7,30.0,98,86,61,30.35,30.18,0,0,3,0.02
2012-1-25,57.0,52.2,47.0,56.0,51.2,46.0,98,98,97,30.45,30.37,0,0,3,0.08
2012-1-26,53.0,49.5,43.0,53.0,48.7,42.0,99,98,96,30.37,30.28,2,0,6,0.21
2012-1-27,55.0,48.7,42.0,43.0,31.5,17.0,97,54,26,30.31,30.25,1,0,4,0.01
2012-1-28,61.0,53.8,48.0,43.0,22.1,0.0,63,32,11,30.33,30.27,1,0,6,0.00
2012-1-29,54.0,52.3,51.0,11.0,4.3,0.0,19,14,11,30.30,30.24,1,0,2,0.00
2012-1-30,52.0,46.6,42.0,46.0,42.6,38.0,93,86,77,30.12,30.05,2,0,7,0.00
2012-1-31,54.0,44.4,38.0,44.0,38.5,16.0,97,83,28,30.15,30.08,4,1,9,0.10
2012-2-1,47.0,44.2,41.0,46.0,43.2,40.0,98,97,94,30.29,30.14,5,0,9,0.40
2012-2-2,64.0,52.0,41.0,41.0,30.4,19.0,97,48,28,30.28,30.09,0,0,1,0.01
2012-2-3,57.0,48.9,44.0,45.0,33.3,22.0,77,56,38,30.05,30.00,3,1,10,0.00
2012-2-4,57.0,49.5,45.0,39.0,32.1,25.0,63,51,39,30.11,30.03,3,1,11,0.00
2012-2-5,59.0,51.5,47.0,38.0,31.2,26.0,55,46,40,30.12,29.99,2,0,8,0.00
2012-2-6,58.0,51.5,47.0,33.0,29.7,25.0,53,43,35,29.99,29.75,6,2,20,0.00
2012-2-7,45.0,44.0,43.0,44.0,43.0,42.0,98,97,96,30.03,29.74,5,2,20,1.50
2012-2-8,57.0,49.6,43.0,50.0,45.1,42.0,99,85,63,30.25,30.16,2,0,9,0.08
2012-2-9,61.0,52.8,46.0,47.0,42.9,37.0,89,70,45,30.28,30.14,4,1,10,0.01
2012-2-10,49.0,46.5,44.0,48.0,44.6,37.0,98,94,66,30.17,30.07,5,1,14,0.45
2012-2-11,49.0,43.5,38.0,46.0,41.9,37.0,98,95,78,30.09,30.01,1,0,5,0.24
2012-2-12,49.0,41.4,37.0,40.0,35.4,30.0,97,81,49,30.07,29.92,5,1,15,0.26
2012-2-13,41.0,38.3,35.0,40.0,37.3,34.0,98,98,97,30.02,29.87,5,1,18,1.01
2012-2-14,36.0,35.5,35.0,35.0,34.5,34.0,98,98,98,30.07,30.02,2,0,5,0.14
2012-2-15,47.0,38.8,30.0,36.0,31.9,28.0,94,77,56,30.23,30.09,3,0,6,0.05
2012-2-16,58.0,49.1,39.0,40.0,29.1,13.0,84,48,26,30.29,30.22,2,0,6,0.01
2012-2-17,57.0,50.2,45.0,51.0,46.7,42.0,95,88,77,30.28,30.23,3,0,8,0.00
2012-2-18,40.0,36.9,33.0,39.0,33.5,29.0,97,88,78,30.22,30.15,1,0,8,0.03
2012-2-19,49.0,39.4,33.0,39.0,33.2,28.0,95,79,52,30.17,30.04,2,0,8,0.01
2012-2-20,49.0,43.6,40.0,48.0,42.5,39.0,98,97,94,30.25,30.05,3,0,7,0.06
2012-2-21,62.0,51.5,43.0,54.0,47.5,42.0,99,87,69,30.35,30.25,2,0,11,0.01
2012-2-22,63.0,52.8,44.0,47.0,44.0,37.0,94,73,52,30.37,30.23,3,1,10,0.01
2012-2-23,58.0,48.8,39.0,42.0,36.9,33.0,94,65,46,30.23,30.09,3,1,10,0.00
2012-2-24,67.0,52.6,40.0,46.0,37.8,30.0,96,60,35,30.23,30.06,2,0,13,0.05
2012-2-25,46.0,38.1,32.0,39.0,33.2,28.0,96,83,63,30.37,30.21,4,1,12,0.06
2012-2-26,46.0,35.0,30.0,33.0,27.6,22.0,94,76,41,30.21,29.82,2,0,7,0.01
2012-2-27,42.0,35.3,30.0,33.0,30.3,27.0,94,83,67,29.96,29.81,3,0,11,0.00
2012-2-28,43.0,37.9,32.0,42.0,35.3,30.0,98,91,70,30.14,29.96,9,2,25,1.09
2012-2-29,43.0,37.9,35.0,42.0,36.8,34.0,98,97,94,30.19,29.95,7,1,23,1.60
2012-3-1,44.0,39.6,34.0,43.0,37.7,32.0,98,94,84,30.28,30.12,5,1,16,0.34
2012-3-2,56.0,45.3,34.0,40.0,33.1,25.0,94,64,40,30.37,30.28,1,0,4,0.04
2012-3-3,65.0,57.0,51.0,49.0,39.0,29.0,61,51,38,30.36,30.28,2,0,6,0.00
2012-3-4,66.0,57.7,50.0,50.0,36.6,22.0,69,47,27,30.28,30.12,2,0,6,0.00
2012-3-5,60.0,49.4,41.0,43.0,36.2,25.0,96,64,37,30.13,30.00,2,0,8,0.00
2012-3-6,44.0,37.0,31.0,41.0,31.7,28.0,97,82,56,30.10,29.96,3,1,16,0.09
2012-3-7,58.0,44.8,31.0,36.0,24.8,-99.9,89,49,26,30.21,30.10,3,-8,6,0.01
2012-3-8,63.0,54.1,47.0,36.0,23.7,14.0,45,31,26,30.35,30.20,1,0,6,0.00
2012-3-9,62.0,51.4,41.0,40.0,27.9,10.0,63,42,22,30.35,30.14,3,1,8,0.00
2012-3-10,47.0,41.5,38.0,46.0,39.4,24.0,97,92,46,30.14,29.98,1,0,4,0.04
2012-3-11,45.0,40.0,36.0,41.0,37.7,34.0,98,93,77,30.01,29.94,3,0,9,0.42
2012-3-12,49.0,40.7,35.0,43.0,38.3,33.0,98,92,74,30.00,29.83,8,2,30,0.19
2012-3-13,46.0,44.5,43.0,45.0,43.5,42.0,98,98,97,29.95,29.76,8,2,24,2.30
2012-3-14,49.0,46.3,43.0,48.0,45.4,42.0,99,97,94,30.09,29.92,3,0,7,0.48
2012-3-15,50.0,47.1,45.0,50.0,46.3,44.0,99,98,97,30.12,30.01,5,2,10,0.50
2012-3-16,47.0,44.1,38.0,47.0,43.6,37.0,99,99,98,30.02,29.70,8,2,20,1.43
2012-3-17,45.0,37.8,33.0,40.0,35.1,32.0,98,91,69,29.70,29.56,4,0,16,0.75
2012-3-18,42.0,35.1,32.0,37.0,32.0,29.0,98,89,71,29.92,29.63,2,1,11,0.32
2012-3-19,44.0,37.1,31.0,33.0,28.5,20.0,94,72,50,30.04,29.91,5,1,17,0.06
2012-3-20,48.0,42.6,35.0,48.0,41.1,-99.9,99,98,94,30.20,30.04,4,2,17,0.18
2012-3-21,53.0,48.9,46.0,52.0,47.9,45.0,99,96,85,30.20,29.98,4,1,15,0.15
2012-3-22,47.0,39.7,35.0,45.0,35.7,-99.9,98,89,65,30.01,29.95,3,-7,16,0.22
2012-3-23,46.0,39.2,34.0,38.0,35.7,33.0,96,87,66,30.02,29.80,5,2,16,0.11
2012-3-24,40.0,36.2,32.0,38.0,35.0,31.0,97,95,91,29.86,29.76,5,0,16,0.94
2012-3-25,46.0,39.2,35.0,43.0,37.5,34.0,98,94,81,29.88,29.76,2,0,7,0.31
2012-3-26,44.0,39.3,34.0,41.0,37.8,33.0,98,95,84,30.02,29.88,7,2,20,0.44
2012-3-27,46.0,44.7,42.0,46.0,44.1,41.0,99,98,97,29.92,29.79,10,5,28,2.95
2012-3-28,52.0,45.5,41.0,45.0,41.4,37.0,99,87,59,30.09,29.88,3,1,12,2.40
2012-3-29,48.0,45.8,42.0,48.0,45.1,38.0,99,97,85,30.10,30.02,7,3,17,0.74
2012-3-30,51.0,48.8,48.0,51.0,48.8,48.0,99,99,99,30.06,29.83,6,3,16,0.74
2012-3-31,49.0,42.0,38.0,49.0,40.8,37.0,99,96,87,29.99,29.65,11,4,22,1.09
2012-4-1,48.0,40.5,36.0,42.0,37.3,35.0,98,89,69,30.29,29.99,3,0,11,0.71
2012-4-2,57.0,46.1,37.0,44.0,37.5,28.0,96,73,51,30.30,30.07,2,0,6,0.01
2012-4-3,50.0,43.1,39.0,48.0,41.1,36.0,96,92,82,30.07,30.00,3,0,6,0.20
2012-4-4,47.0,39.5,34.0,40.0,36.0,32.0,98,88,66,30.20,30.07,2,0,9,0.17
2012-4-5,46.0,37.7,31.0,38.0,33.3,29.0,95,85,69,30.14,30.10,3,1,8,0.01
2012-4-6,50.0,40.5,31.0,40.0,32.3,13.0,94,74,43,30.24,30.15,2,0,6,0.00
2012-4-7,56.0,47.2,38.0,39.0,29.7,7.0,63,51,26,30.15,30.02,3,0,14,0.01
2012-4-8,57.0,48.7,41.0,38.0,25.6,6.0,59,41,21,30.05,29.99,4,1,10,0.01
2012-4-9,60.0,48.8,42.0,47.0,40.0,28.0,93,73,43,30.01,29.81,4,1,20,0.04
2012-4-10,47.0,45.0,43.0,46.0,44.0,41.0,98,97,94,29.86,29.80,3,1,13,0.73
2012-4-11,45.0,43.1,41.0,43.0,41.5,40.0,98,94,88,29.88,29.78,7,3,26,0.38
2012-4-12,46.0,41.6,39.0,42.0,39.9,38.0,99,94,80,29.96,29.76,7,3,24,1.55
2012-4-13,47.0,40.5,36.0,43.0,38.2,35.0,98,92,78,29.89,29.70,3,1,14,0.56
2012-4-14,54.0,44.7,36.0,47.0,40.9,35.0,96,87,71,30.10,29.89,3,1,11,0.01
2012-4-15,61.0,52.8,43.0,47.0,42.1,38.0,96,69,46,30.23,30.16,2,0,6,0.00
2012-4-16,59.0,51.0,42.0,48.0,36.8,19.0,92,62,26,30.24,30.19,2,0,6,0.00
2012-4-17,58.0,49.0,44.0,51.0,46.4,43.0,98,91,73,30.22,30.11,4,0,7,0.00
2012-4-18,45.0,42.1,40.0,43.0,40.3,38.0,97,94,84,30.16,30.13,1,0,4,0.00
2012-4-19,68.0,58.5,48.0,59.0,54.1,47.0,98,86,70,30.23,30.15,4,0,7,0.01
2012-4-20,77.0,63.5,54.0,55.0,48.3,38.0,96,62,35,30.19,30.08,2,0,9,0.01
2012-4-21,81.0,69.6,58.0,59.0,49.3,38.0,65,49,36,30.09,29.94,3,0,7,0.00
2012-4-22,79.0,69.6,58.0,55.0,47.0,42.0,69,45,33,29.96,29.90,3,0,12,0.00
2012-4-23,57.0,50.5,46.0,51.0,47.8,45.0,98,91,71,30.00,29.87,6,2,14,0.05
2012-4-24,54.0,51.1,49.0,53.0,50.2,48.0,99,97,95,30.05,29.99,4,1,11,0.26
2012-4-25,52.0,50.9,50.0,52.0,50.3,49.0,100,98,97,30.02,29.79,3,1,12,0.15
2012-4-26,51.0,45.9,40.0,49.0,42.7,38.0,98,90,72,30.22,29.79,4,1,12,0.61
2012-4-27,56.0,46.3,39.0,47.0,41.4,37.0,97,84,66,30.27,30.20,3,0,7,0.01
2012-4-28,62.0,51.9,43.0,53.0,44.4,-99.9,94,78,66,30.21,29.99,3,1,10,0.00
2012-4-29,73.0,57.5,46.0,59.0,48.6,39.0,95,74,51,30.00,29.94,2,0,7,0.00
2012-4-30,66.0,54.9,44.0,56.0,45.8,31.0,96,73,44,30.05,29.98,2,1,12,0.00
2012-5-1,57.0,46.4,38.0,47.0,41.2,36.0,98,84,61,29.99,29.94,3,0,8,0.00
2012-5-2,55.0,41.0,36.0,44.0,27.6,-99.9,94,73,53,29.98,29.91,2,-73,10,0.00
2012-5-3,52.0,46.8,40.0,51.0,45.7,38.0,98,97,94,30.10,29.91,4,1,12,0.84
2012-5-4,53.0,45.2,40.0,46.0,41.8,37.0,98,89,74,30.25,30.10,3,1,10,0.09
2012-5-5,63.0,49.7,37.0,48.0,39.6,-99.9,94,72,50,30.26,30.15,2,0,8,0.01
2012-5-6,73.0,60.3,49.0,49.0,41.8,34.0,75,52,35,30.17,30.09,3,0,7,0.00
2012-5-7,80.0,69.3,61.0,47.0,37.3,28.0,57,32,19,30.10,30.03,2,0,8,0.00
2012-5-8,82.0,68.4,56.0,57.0,44.1,36.0,64,43,20,30.04,29.99,1,0,8,0.00
2012-5-9,69.0,56.9,45.0,51.0,42.7,36.0,82,60,40,30.02,29.97,4,1,8,0.00
2012-5-10,76.0,58.9,43.0,50.0,38.9,34.0,82,51,26,29.98,29.92,2,0,8,0.00
2012-5-11,76.0,64.0,54.0,50.0,34.9,24.0,55,35,22,30.02,29.92,0,0,2,0.00
2012-5-12,80.0,65.7,62.0,38.0,20.3,3.0,31,18,9,30.09,30.02,2,0,4,0.00
2012-5-13,66.0,64.5,63.0,19.0,6.5,2.0,17,10,8,30.06,30.02,2,0,3,0.00
2012-5-14,59.0,51.0,43.0,48.0,45.0,42.0,95,81,67,30.09,30.05,1,0,5,0.00
2012-5-15,72.0,60.4,46.0,54.0,47.7,41.0,81,64,46,30.06,30.02,1,0,5,0.00
2012-5-16,76.0,64.1,56.0,52.0,46.5,41.0,77,54,29,30.05,29.97,2,0,7,0.00
2012-5-17,63.0,52.8,46.0,48.0,41.7,33.0,78,66,52,29.97,29.91,2,1,8,0.00
2012-5-18,67.0,53.5,41.0,51.0,36.8,29.0,76,54,39,30.02,29.96,2,0,8,0.00
2012-5-19,71.0,56.9,46.0,48.0,35.2,-99.9,61,46,33,30.05,29.97,3,0,13,0.00
2012-5-20,74.0,48.2,53.0,54.0,12.5,-99.9,59,39,41,30.05,30.02,1,-200,6,0.00
2012-5-21,-200.0,0.0,200.0,-99.9,-99.9,-99.9,0,0,100,30.14,30.03,0,-999,0,0.00
2012-5-22,-200.0,0.0,200.0,-99.9,-99.9,-99.9,0,0,100,30.19,30.12,0,-999,0,0.00
2012-5-23,-200.0,0.0,200.0,-99.9,-99.9,-99.9,0,0,100,30.14,30.09,0,-999,0,0.00
2012-5-24,-200.0,0.0,200.0,-99.9,-99.9,-99.9,0,0,100,29.96,29.79,0,-999,0,0.00
2012-5-25,-200.0,0.0,200.0,-99.9,-99.9,-99.9,0,0,100,29.88,29.75,0,-999,0,0.00
2012-5-26,-200.0,0.0,200.0,-99.9,-99.9,-99.9,0,0,100,30.08,29.87,0,-999,0,0.00
2012-5-27,-200.0,0.0,200.0,-99.9,-99.9,-99.9,0,0,100,30.15,30.07,0,-999,0,0.00
2012-5-28,-200.0,0.0,200.0,-99.9,-99.9,-99.9,0,0,100,30.10,30.03,0,-999,0,0.00
2012-5-29,-200.0,0.0,200.0,-99.9,-99.9,-99.9,0,0,100,30.10,30.01,0,-999,0,0.00
2012-5-30,-200.0,0.0,200.0,-99.9,-99.9,-99.9,0,0,100,30.14,30.08,0,-999,0,0.00
2012-5-31,78.0,19.1,61.0,54.0,-57.9,-99.9,62,15,41,30.09,29.97,1,-720,6,0.00
2012-6-1,79.0,65.3,56.0,58.0,52.0,47.0,90,64,45,29.97,29.90,2,1,10,0.00
2012-6-2,71.0,59.1,50.0,55.0,49.6,-99.9,94,74,52,30.00,29.92,4,1,13,0.00
2012-6-3,75.0,59.8,48.0,53.0,46.9,33.0,90,65,31,29.99,29.94,2,0,9,0.00
2012-6-4,57.0,48.3,43.0,53.0,47.0,42.0,97,95,86,30.10,29.85,6,2,17,0.73
2012-6-5,55.0,46.9,41.0,47.0,42.7,39.0,98,86,68,30.22,30.10,2,0,9,0.04
2012-6-6,61.0,49.3,40.0,48.0,41.5,37.0,95,75,56,30.19,30.05,3,0,10,0.01
2012-6-7,68.0,54.6,44.0,54.0,46.6,35.0,94,75,58,30.08,30.03,2,0,9,0.00
2012-6-8,60.0,49.7,42.0,47.0,42.5,39.0,94,78,56,30.06,30.01,3,1,15,0.00
2012-6-9,67.0,53.7,40.0,50.0,42.9,37.0,90,69,46,30.08,30.02,3,0,11,0.00
2012-6-10,81.0,66.9,53.0,47.0,42.0,36.0,61,42,26,30.02,29.96,2,0,8,0.00
2012-6-11,79.0,65.9,57.0,54.0,45.3,40.0,65,48,33,30.06,29.98,2,0,10,0.00
2012-6-12,75.0,61.0,50.0,60.0,51.6,46.0,94,72,55,30.09,29.99,5,1,15,0.00
2012-6-13,75.0,60.4,47.0,56.0,47.9,42.0,96,67,40,29.99,29.86,3,0,8,0.00
2012-6-14,73.0,59.9,50.0,47.0,41.3,32.0,78,52,33,29.92,29.85,4,1,16,0.00
2012-6-15,77.0,62.8,49.0,53.0,46.5,38.0,78,57,38,29.92,29.88,4,1,9,0.00
2012-6-16,96.0,80.0,64.0,58.0,48.9,-99.9,60,37,24,29.96,29.91,1,0,5,0.00
2012-6-17,81.0,71.9,62.0,59.0,51.9,34.0,60,50,34,29.96,29.88,2,0,6,0.00
2012-6-18,77.0,61.0,49.0,51.0,43.6,37.0,77,55,33,29.93,29.86,3,0,9,0.00
2012-6-19,81.0,62.5,52.0,47.0,41.4,36.0,72,49,27,29.97,29.86,1,0,6,0.00
2012-6-20,87.0,70.1,57.0,52.0,42.6,34.0,54,38,22,29.92,29.88,2,0,6,0.00
2012-6-21,62.0,52.5,45.0,49.0,44.8,36.0,94,77,46,29.96,29.82,3,0,9,0.00
2012-6-22,53.0,49.0,43.0,53.0,48.6,42.0,99,98,95,29.94,29.88,4,1,11,0.25
2012-6-23,57.0,48.6,41.0,50.0,45.0,41.0,99,88,67,29.93,29.84,3,0,11,0.04
2012-6-24,60.0,49.2,42.0,49.0,42.9,38.0,98,80,59,30.05,29.93,3,0,8,0.01
2012-6-25,58.0,49.3,43.0,50.0,46.0,39.0,97,89,69,30.08,30.03,3,0,8,0.02
2012-6-26,66.0,52.7,44.0,52.0,45.6,42.0,99,79,50,30.08,29.96,2,0,8,0.02
2012-6-27,74.0,59.4,47.0,54.0,45.2,35.0,89,61,35,30.00,29.92,1,0,6,0.01
2012-6-28,71.0,59.4,50.0,55.0,46.9,26.0,95,65,35,30.11,29.99,2,0,8,0.00
2012-6-29,70.0,58.8,50.0,58.0,52.9,49.0,97,82,64,30.12,30.07,2,0,7,0.01
2012-6-30,68.0,60.1,52.0,61.0,56.0,50.0,98,87,71,30.08,29.99,3,0,7,0.01
2012-7-1,74.0,60.9,53.0,63.0,56.7,52.0,99,87,65,29.99,29.94,2,0,12,0.02
2012-7-2,74.0,59.3,48.0,59.0,51.8,46.0,95,78,56,29.97,29.91,2,0,9,0.01
2012-7-3,75.0,60.0,48.0,56.0,49.8,45.0,93,71,49,29.97,29.91,2,0,8,0.00
2012-7-4,56.0,54.0,52.0,49.0,44.2,41.0,77,69,65,29.91,29.88,1,0,5,0.00
2012-7-5,69.0,56.5,47.0,53.0,47.0,40.0,97,72,52,30.01,29.91,2,0,7,0.00
2012-7-6,80.0,64.7,50.0,57.0,48.6,29.0,96,58,28,30.06,29.99,1,0,6,0.00
2012-7-7,87.0,72.8,62.0,55.0,40.4,26.0,48,32,18,30.05,30.01,2,0,7,0.00
2012-7-8,87.0,71.1,55.0,57.0,39.5,19.0,77,37,15,30.06,29.99,1,0,5,0.00
2012-7-9,82.0,66.9,54.0,57.0,46.5,19.0,79,50,19,30.08,30.01,1,0,5,0.00
2012-7-10,90.0,76.3,60.0,62.0,50.6,42.0,67,43,19,30.02,29.94,1,0,6,0.00
2012-7-11,95.0,81.2,68.0,60.0,52.0,45.0,55,38,19,29.97,29.91,2,0,8,0.00
2012-7-12,83.0,71.1,61.0,58.0,52.2,37.0,74,52,39,29.94,29.89,2,0,7,0.00
2012-7-13,77.0,63.8,54.0,57.0,50.3,37.0,84,63,42,29.92,29.86,2,0,8,0.00
2012-7-14,77.0,66.9,56.0,59.0,53.0,48.0,79,62,47,29.96,29.88,2,0,5,0.00
2012-7-15,82.0,72.6,62.0,63.0,54.5,43.0,67,53,43,29.95,29.86,2,0,5,0.00
2012-7-16,62.0,54.3,48.0,51.0,47.7,43.0,96,79,52,29.91,29.81,3,0,8,0.02
2012-7-17,55.0,51.7,50.0,53.0,50.3,48.0,97,95,90,30.01,29.89,2,0,7,0.09
2012-7-18,67.0,55.1,49.0,57.0,51.5,48.0,98,89,71,30.04,29.98,1,0,7,0.01
2012-7-19,70.0,57.6,49.0,57.0,52.1,47.0,97,83,60,30.06,29.97,3,0,7,0.01
2012-7-20,73.0,65.0,62.0,53.0,49.8,47.0,66,58,50,30.12,30.09,1,0,6,0.00
2012-7-21,84.0,71.7,62.0,61.0,54.0,46.0,72,55,37,30.09,29.98,2,0,8,0.00
2012-7-22,88.0,72.1,59.0,62.0,55.7,50.0,83,59,37,29.99,29.94,1,0,5,0.00
2012-7-23,85.0,70.6,60.0,62.0,56.1,50.0,79,61,45,29.96,29.91,1,0,5,0.00
2012-7-24,73.0,63.1,55.0,57.0,51.3,43.0,80,66,52,30.00,29.94,2,0,5,0.00
2012-7-25,77.0,63.8,54.0,60.0,52.5,45.0,87,68,46,30.02,29.96,1,0,6,0.00
2012-7-26,77.0,63.3,54.0,59.0,54.0,47.0,89,73,53,30.01,29.94,2,0,7,0.00
2012-7-27,77.0,64.4,54.0,59.0,51.6,43.0,83,64,50,30.06,29.96,2,0,8,0.00
2012-8-29,-200.0,0.0,200.0,-99.9,-99.9,-99.9,0,0,100,30.03,29.89,0,-999,0,0.00
2012-8-30,-200.0,0.0,200.0,-99.9,-99.9,-99.9,0,0,100,29.89,29.82,0,-999,0,0.00
2012-8-31,-200.0,0.0,200.0,-99.9,-99.9,-99.9,0,0,100,29.94,29.83,0,-999,0,0.00
2012-9-1,-200.0,0.0,200.0,-99.9,-99.9,-99.9,0,0,100,30.05,29.94,0,-999,0,0.00
2012-9-2,-200.0,0.0,200.0,-99.9,-99.9,-99.9,0,0,100,30.04,29.98,0,-999,0,0.00
2012-9-3,-200.0,0.0,200.0,-99.9,-99.9,-99.9,0,0,100,30.04,29.97,0,-999,0,0.00
2012-9-4,-200.0,0.0,200.0,-99.9,-99.9,-99.9,0,0,100,30.05,30.00,0,-999,0,0.00
2012-9-5,82.0,19.9,63.0,49.0,-63.9,-99.9,37,8,23,30.02,29.96,2,-720,7,0.00
2012-9-6,76.0,61.7,54.0,50.0,28.9,-99.9,71,35,19,30.01,29.95,3,-53,10,0.00
2012-9-7,77.0,62.5,52.0,51.0,41.2,24.0,78,48,24,30.09,30.00,2,0,7,0.00
2012-9-8,73.0,61.0,48.0,53.0,45.4,15.0,88,59,14,30.09,30.00,1,0,4,0.00
2012-9-9,68.0,56.1,47.0,49.0,46.9,44.0,93,73,49,30.06,29.94,2,0,10,0.00
2012-9-10,79.0,63.0,51.0,51.0,46.4,43.0,84,57,34,29.99,29.88,2,0,7,0.00
2012-9-12,80.0,70.9,62.0,50.0,45.0,39.0,53,40,29,30.10,29.99,3,0,10,0.00
2012-9-13,86.0,74.9,67.0,54.0,45.7,36.0,57,37,25,30.14,30.08,6,0,14,0.00
2012-9-14,76.0,70.0,62.0,55.0,47.6,24.0,65,46,20,30.13,30.06,0,0,5,0.00
2012-9-15,79.0,69.6,63.0,51.0,36.6,19.0,51,31,16,30.12,30.04,0,0,2,0.00
2012-9-16,82.0,71.6,65.0,41.0,28.6,10.0,34,21,7,30.08,30.01,2,0,9,0.00
2012-9-17,75.0,64.1,56.0,52.0,42.3,27.0,77,48,24,30.05,30.00,1,0,5,0.00
2012-9-18,72.0,56.5,47.0,50.0,46.5,39.0,95,71,35,30.12,30.03,1,0,3,0.00
2012-9-19,68.0,52.6,46.0,53.0,47.7,44.0,97,85,56,30.12,30.06,1,0,4,0.01
2012-9-20,70.0,53.3,43.0,51.0,44.3,40.0,96,74,43,30.11,30.06,1,0,6,0.01
2012-9-21,76.0,60.2,48.0,47.0,40.1,33.0,84,50,25,30.06,29.98,2,0,6,0.00
2012-9-22,83.0,65.7,52.0,48.0,39.3,-99.9,65,41,23,29.99,29.94,1,0,7,0.00
2012-9-23,83.0,70.3,58.0,51.0,44.2,36.0,61,40,27,30.02,29.94,1,0,5,0.00
2012-9-24,81.0,66.8,57.0,51.0,44.7,39.0,70,47,27,30.00,29.93,2,0,8,0.00
2012-9-26,83.0,71.1,60.0,53.0,45.6,40.0,62,41,29,29.95,29.90,2,0,4,0.00
2012-9-27,87.0,75.6,68.0,53.0,45.0,39.0,46,34,26,29.97,29.92,2,0,10,0.00
2012-9-28,83.0,73.1,66.0,52.0,42.6,36.0,42,34,27,29.99,29.93,1,0,6,0.00
2012-9-29,90.0,76.9,68.0,43.0,36.6,33.0,28,24,17,30.09,29.99,0,0,5,0.00
2012-10-13,62.0,56.8,55.0,56.0,53.7,53.0,94,90,81,30.25,30.24,0,0,4,0.00
2012-10-14,72.0,59.5,54.0,59.0,54.6,52.0,96,85,55,30.26,30.15,2,0,7,0.00
2012-10-15,73.0,60.9,52.0,59.0,54.7,48.0,95,82,44,30.17,30.09,2,0,7,0.00
2012-10-16,69.0,60.5,53.0,63.0,56.2,45.0,97,86,68,30.11,29.99,1,0,5,0.03
2012-10-17,82.0,68.4,55.0,48.0,34.3,24.0,72,32,12,30.02,29.93,1,0,4,0.00
2012-10-18,84.0,72.9,60.0,49.0,36.0,23.0,66,28,16,30.06,29.96,3,0,7,0.00
2012-10-19,73.0,61.1,55.0,54.0,48.0,28.0,93,63,35,30.10,29.99,2,0,6,0.00
2012-10-20,63.0,52.8,43.0,53.0,46.1,35.0,96,79,57,29.99,29.88,2,0,11,0.00
2012-10-21,58.0,47.5,42.0,45.0,35.6,30.0,93,65,44,29.94,29.80,4,0,12,0.03
2012-10-22,50.0,44.4,40.0,47.0,42.8,39.0,96,94,82,29.90,29.70,5,1,17,0.70
2012-10-23,50.0,43.9,39.0,44.0,41.2,38.0,97,90,75,30.03,29.88,3,0,10,0.54
2012-10-24,50.0,45.9,42.0,48.0,44.3,41.0,97,94,88,30.20,29.97,4,0,7,0.12
2012-10-25,58.0,48.8,45.0,49.0,44.4,39.0,97,86,63,30.30,30.19,1,0,4,0.00
2012-10-26,65.0,54.4,46.0,53.0,45.6,37.0,94,74,44,30.28,30.19,3,0,10,0.00
2012-10-27,68.0,58.9,54.0,55.0,52.5,50.0,90,80,63,30.19,30.09,2,0,6,0.00
2012-10-28,71.0,60.1,54.0,57.0,53.4,50.0,96,80,54,30.10,30.03,1,0,6,0.00
2012-10-29,69.0,57.1,53.0,57.0,53.3,51.0,97,88,57,30.17,30.09,1,0,5,0.01
2012-10-30,63.0,56.5,52.0,58.0,52.7,47.0,96,87,70,30.11,30.01,2,0,5,0.01
2012-10-31,52.0,50.9,49.0,51.0,49.9,48.0,97,96,95,30.01,29.95,5,1,13,0.84
2012-11-1,56.0,50.5,45.0,52.0,48.5,43.0,98,94,82,30.10,30.01,1,0,5,0.08
2012-11-2,60.0,50.0,44.0,50.0,44.0,34.0,94,81,50,30.10,30.05,1,0,4,0.00
2012-11-3,68.0,57.9,53.0,57.0,48.4,36.0,92,71,51,30.21,30.09,0,0,5,0.00
2012-11-4,71.0,62.5,55.0,55.0,51.9,48.0,93,70,48,30.27,30.20,2,0,6,0.00
2012-11-5,78.0,71.0,67.0,60.0,51.6,44.0,62,51,38,30.23,30.13,0,0,2,0.00
2012-11-6,76.0,68.4,60.0,55.0,44.4,32.0,57,42,30,30.14,30.06,1,0,10,0.00
2012-11-7,65.0,54.3,42.0,53.0,46.4,40.0,93,76,48,30.08,29.92,1,0,11,0.00
2012-11-8,46.0,41.0,36.0,43.0,38.1,34.0,94,90,78,29.92,29.83,4,0,17,0.09
2012-11-9,48.0,38.6,34.0,40.0,35.9,33.0,95,90,72,29.97,29.84,1,0,6,0.04
2012-11-10,48.0,39.5,36.0,39.0,36.1,34.0,95,88,68,30.11,29.96,1,0,5,0.03
2012-11-11,51.0,42.0,36.0,40.0,34.2,27.0,94,75,56,30.35,30.22,2,0,5,0.00
2012-11-12,55.0,47.2,42.0,46.0,39.2,33.0,89,74,56,30.35,30.27,2,0,5,0.00
2012-11-13,59.0,52.8,49.0,53.0,48.5,45.0,91,85,76,30.27,30.13,1,0,4,0.00
2012-11-14,66.0,56.9,53.0,52.0,46.6,-99.9,80,70,54,30.14,30.05,0,0,4,0.00
2012-11-15,64.0,55.4,49.0,47.0,41.7,31.0,88,61,40,30.06,29.93,5,1,17,0.00
2012-11-16,51.0,49.6,49.0,49.0,47.6,46.0,97,93,87,29.96,29.83,4,1,14,0.20
2012-11-17,53.0,50.7,49.0,52.0,49.7,47.0,98,98,94,29.90,29.77,6,2,16,1.13
2012-11-18,48.0,43.4,37.0,46.0,41.5,36.0,97,93,82,30.10,29.99,3,1,9,0.05
2012-11-19,52.0,49.4,47.0,51.0,48.4,46.0,98,98,97,30.16,30.08,7,3,18,0.66
2012-11-20,54.0,52.4,48.0,53.0,51.4,47.0,98,98,98,30.10,29.94,10,4,21,1.48
2012-11-21,50.0,46.5,41.0,49.0,44.7,39.0,98,95,83,30.22,30.02,4,0,14,0.14
2012-11-22,54.0,45.9,40.0,41.0,37.0,32.0,94,72,53,30.26,30.19,0,0,1,0.00
2012-11-23,65.0,53.1,46.0,45.0,35.1,18.0,77,52,28,30.28,30.22,0,0,3,0.00
2012-11-24,60.0,52.7,48.0,52.0,44.8,34.0,96,75,57,30.23,30.08,2,0,7,0.01
2012-11-25,60.0,50.9,45.0,50.0,45.1,37.0,97,82,56,30.08,29.96,1,0,4,0.00
2012-11-26,59.0,52.5,49.0,49.0,42.2,23.0,91,69,34,30.06,29.97,2,0,10,0.00
2012-11-27,49.0,47.5,44.0,47.0,44.7,43.0,97,90,84,30.05,29.90,9,3,26,0.00
2012-11-28,50.0,48.6,47.0,49.0,47.2,44.0,97,95,84,29.95,29.72,11,3,22,0.29
2012-11-29,54.0,51.2,48.0,53.0,50.1,47.0,98,96,93,29.95,29.73,12,6,28,3.34
2012-11-30,54.0,51.4,50.0,53.0,50.4,49.0,98,98,98,29.93,29.73,11,4,24,0.14
2012-12-1,55.0,51.1,49.0,54.0,50.1,48.0,98,98,98,29.99,29.75,12,4,26,1.27
2012-12-2,55.0,46.8,39.0,54.0,45.5,38.0,98,96,89,30.10,29.59,15,3,37,1.12
2012-12-3,53.0,45.4,39.0,43.0,39.3,35.0,95,80,59,30.16,30.07,5,1,14,0.01
2012-12-4,50.0,47.8,45.0,49.0,46.3,40.0,98,95,77,30.17,30.08,6,3,17,0.08
2012-12-5,57.0,52.7,44.0,57.0,52.0,43.0,99,98,97,30.17,30.09,4,0,10,0.10
2012-12-6,48.0,42.0,40.0,44.0,38.6,-99.9,98,93,84,30.16,30.09,2,0,4,0.01
2012-12-7,52.0,44.1,40.0,39.0,33.2,27.0,92,67,41,30.15,30.07,1,0,4,0.00
2012-12-8,54.0,45.5,39.0,38.0,33.5,25.0,83,63,46,30.15,30.03,1,0,5,0.00
2012-12-9,57.0,50.4,44.0,45.0,39.0,33.0,78,65,57,30.23,30.14,2,0,7,0.00
2012-12-10,66.0,58.8,54.0,49.0,41.5,29.0,76,54,32,30.25,30.14,0,0,3,0.00
2012-12-11,58.0,48.0,41.0,45.0,40.0,31.0,96,76,35,30.14,29.80,5,0,15,0.11
2012-12-12,43.0,38.7,35.0,41.0,37.0,32.0,97,94,85,29.88,29.78,1,0,9,0.13
2012-12-13,47.0,37.4,32.0,36.0,32.3,29.0,94,83,65,29.88,29.82,1,0,5,0.01
2012-12-14,43.0,37.8,34.0,38.0,35.2,32.0,95,90,79,29.96,29.76,2,0,4,0.02
2012-12-15,40.0,37.9,35.0,39.0,35.4,30.0,97,91,76,29.98,29.88,4,1,14,0.23
2012-12-16,49.0,43.0,38.0,48.0,42.0,37.0,100,98,97,30.04,29.92,6,3,22,0.23
2012-12-17,50.0,42.7,35.0,49.0,41.2,32.0,98,96,89,30.04,29.91,7,1,17,0.64
2012-12-18,40.0,34.6,30.0,33.0,30.4,26.0,91,85,71,30.17,29.99,2,0,10,0.01
2012-12-19,44.0,36.5,30.0,36.0,30.3,23.0,87,79,69,30.24,30.10,4,1,16,0.00
2012-12-20,46.0,41.2,36.0,45.0,40.0,34.0,98,97,86,30.10,29.84,10,4,29,3.51
2012-12-21,47.0,44.5,43.0,46.0,43.5,42.0,98,98,97,29.84,29.73,10,3,22,1.44
2012-12-22,44.0,39.9,37.0,43.0,38.8,35.0,97,96,89,29.97,29.71,10,2,26,0.76
2012-12-23,50.0,43.8,39.0,49.0,42.8,38.0,98,98,96,29.98,29.75,10,2,25,1.91
2012-12-24,46.0,40.0,35.0,40.0,37.0,34.0,98,90,70,30.17,29.98,1,0,9,0.01
2012-12-25,41.0,39.6,37.0,40.0,37.6,34.0,98,94,80,30.10,29.74,5,2,16,0.31
2012-12-26,41.0,39.5,37.0,40.0,38.5,36.0,98,98,97,30.09,29.80,3,1,13,0.35
2012-12-27,44.0,38.2,35.0,39.0,36.2,34.0,98,93,81,30.12,30.08,1,0,4,0.00
2012-12-28,39.0,37.2,35.0,37.0,35.4,34.0,97,93,88,30.11,29.96,4,1,16,0.01
2012-12-29,47.0,38.2,34.0,38.0,35.1,33.0,97,90,68,30.07,29.95,2,0,8,0.01
2012-12-30,46.0,38.3,34.0,38.0,34.3,32.0,95,85,66,30.16,30.01,1,0,4,0.01
2012-12-31,47.0,39.8,37.0,41.0,32.4,22.0,93,76,42,30.25,30.14,2,0,4,0.00
2013-1-1,50.0,39.4,34.0,37.0,31.0,25.0,92,73,49,30.22,30.17,1,0,6,0.00